Location: Caltech
(34.1382°N, 118.1253°W)
Time: 20:18:27
(UTC-07:00)

SO-67 - Visible Passes

Search period start: 30 March 2015 00:00
Search period end: 09 April 2015 00:00
Orbit: 444 x 449 km, 97.1° (Epoch: 30 March)

Date Brightness Start Highest point End Pass type
(mag) Time Alt. Az. Time Alt. Az. Time Alt. Az.
01 Apr ? 19:45:58 10° SSW 19:48:48 24° W 19:51:36 10° NW visible
03 Apr ? 20:07:46 10° WSW 20:09:25 13° W 20:10:55 10° WNW visible
06 Apr ? 19:50:47 10° SSW 19:53:26 21° W 19:56:01 10° NW visible
08 Apr ? 20:12:42 10° WSW 20:13:45 11° W 20:14:36 10° WNW visible
